GW6869 Weather Reports


Display with metric or nautical units.
time (UTC)temp
F
wind
direction
speed
MPH
gust
MPH
rain 1hr
in
rain 24hr
in
rain mn
in
humidity
%
barometer
mb
20260506044709 57 0 0.0 0.0 0.00 0.00 0.00 87 1016.6
20260506043110 57 0 0.0 0.0 0.00 0.00 0.00 87 1016.5
20260506041605 57 0 0.0 0.0 0.00 0.00 0.00 86 1016.6
20260506040057 57 0 0.0 0.0 0.00 0.00 0.00 86 1016.4
20260506034627 57 0 0.0 1.0 0.00 0.00 0.00 85 1016.2
20260506033058 58 0 0.0 0.0 0.00 0.00 0.00 85 1016.0
20260506031606 58 0 0.0 0.0 0.00 0.00 0.00 84 1015.9
20260506030052 58 0 0.0 0.0 0.00 0.00 0.00 84 1015.8
20260506024554 58 0 0.0 0.0 0.00 0.00 0.00 83 1015.7
20260506023108 59 0 0.0 0.0 0.00 0.00 0.00 83 1015.7
20260506021552 59 0 0.0 0.0 0.00 0.00 0.00 82 1015.7
20260506020053 59 0 0.0 1.0 0.00 0.00 0.00 81 1015.7
20260506014556 59 0 0.0 0.0 0.00 0.00 0.00 81 1015.5
20260506013054 60 0 0.0 0.0 0.00 0.00 0.00 80 1015.5
20260506011617 60 0 0.0 0.0 0.00 0.00 0.00 79 1015.5
20260506004625 60 0 0.0 0.0 0.00 0.00 0.00 79 1015.6
20260506003110 60 0 0.0 0.0 0.00 0.00 0.00 79 1015.7
20260506001556 61 0 0.0 2.0 0.00 0.00 0.00 79 1015.7
20260506000057 61 0 0.0 0.0 0.00 0.00 0.00 79 1015.8
20260505234625 61 0 0.0 4.0 0.00 0.00 0.00 77 1015.9
20260505233054 62 0 0.0 3.0 0.00 0.00 0.00 77 1015.8
20260505231557 62 161 0.0 3.0 0.00 0.00 0.00 74 1015.8
20260505230053 62 0 0.0 1.0 0.00 0.00 0.00 74 1016.0
20260505224556 63 0 2.0 5.0 0.00 0.00 0.00 70 1016.0
20260505223055 62 34 0.0 4.0 0.00 0.00 0.00 73 1016.1
20260505221551 62 0 0.0 4.0 0.00 0.00 0.00 75 1016.2
20260505214601 62 0 0.0 2.0 0.00 0.00 0.00 76 1016.3
20260505213100 63 250 0.0 3.0 0.00 0.00 0.00 77 1016.4
20260505211600 62 313 0.0 4.0 0.00 0.00 0.00 77 1016.2
20260505210056 59 0 0.0 5.0 0.00 0.00 0.00 81 1016.4
20260505204600 59 0 0.0 5.0 0.00 0.00 0.00 82 1016.6
20260505203056 60 329 0.0 0.0 0.00 0.00 0.00 81 1016.6
20260505201554 58 0 0.0 0.0 0.00 0.00 0.00 83 1016.6
20260505200059 58 0 0.0 4.0 0.00 0.00 0.00 84 1016.6
20260505194559 57 128 0.0 3.0 0.00 0.00 0.00 84 1016.7
20260505193059 57 162 0.0 3.0 0.00 0.00 0.00 85 1016.7
20260505191558 56 119 0.0 3.0 0.00 0.00 0.00 86 1016.7
20260505190055 55 0 0.0 0.0 0.00 0.00 0.00 87 1016.8
20260505184603 55 0 0.0 0.0 0.00 0.00 0.00 88 1016.8
20260505183055 55 220 0.0 3.0 0.00 0.00 0.00 89 1016.7
20260505181600 54 0 0.0 2.0 0.00 0.00 0.00 89 1016.8
20260505180058 54 0 0.0 2.0 0.00 0.00 0.00 89 1016.6
20260505174610 54 0 0.0 1.0 0.00 0.00 0.00 89 1016.6
20260505173054 53 0 0.0 0.0 0.00 0.00 0.00 90 1016.5
20260505171556 53 0 0.0 0.0 0.00 0.00 0.00 90 1016.5
20260505170126 53 0 0.0 0.0 0.00 0.00 0.00 90 1016.4
20260505164558 53 0 0.0 0.0 0.00 0.00 0.00 90 1016.4
20260505163052 53 0 0.0 0.0 0.00 0.00 0.00 91 1016.2
20260505161556 52 0 0.0 0.0 0.00 0.00 0.00 91 1016.2
20260505153058 52 0 0.0 0.0 0.00 0.00 0.00 91 1016.0
20260505151556 52 0 0.0 0.0 0.00 0.00 0.00 91 1015.9
20260505124557 52 0 0.0 0.0 0.00 0.00 0.00 90 1015.1
20260505123112 52 0 0.0 0.0 0.00 0.00 0.00 89 1015.0
20260505121556 53 0 0.0 0.0 0.00 0.00 0.00 89 1015.1
20260505120058 53 0 0.0 0.0 0.00 0.00 0.00 88 1015.0
20260505114613 53 0 0.0 0.0 0.00 0.00 0.00 88 1015.0
20260505113055 53 0 0.0 0.0 0.00 0.00 0.00 88 1014.9
20260505111604 53 0 0.0 0.0 0.00 0.00 0.00 87 1014.9
20260505101559 54 0 0.0 0.0 0.00 0.00 0.00 87 1014.4
20260505100057 54 0 0.0 0.0 0.00 0.00 0.00 86 1014.4
20260505094553 54 0 0.0 0.0 0.00 0.00 0.00 86 1014.4
20260505093053 55 0 0.0 0.0 0.00 0.00 0.00 86 1014.2
20260505091552 55 0 0.0 0.0 0.00 0.00 0.00 86 1014.2
20260505090058 55 0 0.0 0.0 0.00 0.00 0.00 85 1014.2
20260505084552 56 0 0.0 0.0 0.00 0.00 0.00 84 1014.0
20260505083102 56 0 0.0 0.0 0.00 0.00 0.00 84 1014.0
20260505081556 57 0 0.0 1.0 0.00 0.00 0.00 83 1013.9
20260505080053 57 0 0.0 0.0 0.00 0.00 0.00 82 1013.9
20260505074552 58 0 0.0 0.0 0.00 0.00 0.00 81 1013.8
20260505073056 59 0 0.0 0.0 0.00 0.00 0.00 80 1013.6
20260505071551 59 0 0.0 0.0 0.00 0.00 0.00 79 1013.4
20260505070058 60 0 0.0 0.0 0.00 0.00 0.00 80 1013.3
20260505064601 60 0 0.0 0.0 0.00 0.00 0.00 81 1013.1
20260505063057 61 0 0.0 0.0 0.00 0.00 0.00 81 1013.0
20260505061607 61 0 0.0 0.0 0.00 0.00 0.00 82 1013.1